Location: 22
(39.7117°N, 89.5929°W)
Time: 08:08:32
(UTC-05:00)

S-56A Canister/Altair - Pass Details

Date: 08 February 2023
Orbit: 638 x 2493 km, 38.9° (Epoch: 25 March)

Event Time Altitude Azimuth Distance (km) Brightness Sun altitude
Rises 13:00:12 0° 278° (W) 2,998 10.6 34.3°
Reaches altitude 10° 13:02:20 10° 275° (W) 2,163 10.1 34.2°
Maximum altitude 13:07:09 63° 195° (SSW) 926 9.3 33.9°
Drops below altitude 10° 13:13:48 10° 115° (ESE) 2,952 10.7 33.6°
Sets 13:17:08 0° 113° (ESE) 4,202 11.4 33.4°
